Total_Precipitation_Accumulation
0.68 0.64 0.59 0.63 0.62 0.58 0.56 0.62 0.75 0.90 1.04 1.16 1.28 1.51 1.67 1.76 1.75 1.74 1.80 1.71 1.50 1.57 1.69 1.68 1.91 1.98 1.97 2.00 1.96 2.13 2.18 1.90 1.76 2.11 2.06 1.64 1.33 1.21 1.27 1.35 1.40 1.52 1.55
0.56 0.54 0.45 0.43 0.46 0.49 0.52 0.57 0.71 0.94 1.15 1.35 1.51 1.68 2.00 2.16 2.15 2.19 2.11 2.04 1.91 1.92 1.84 1.93 2.18 2.25 2.37 2.47 2.32 2.48 2.59 2.28 1.98 2.44 2.93 2.50 2.01 1.40 1.16 1.27 1.44 1.62 1.66
0.44 0.45 0.40 0.35 0.32 0.35 0.42 0.50 0.61 0.83 1.14 1.43 1.65 1.83 2.06 2.31 2.41 2.29 2.24 2.24 2.29 2.32 2.20 2.15 2.30 2.35 2.45 2.68 2.73 2.68 2.81 2.76 2.39 2.36 2.93 2.92 2.52 2.08 1.52 1.34 1.41 1.61 1.73
0.41 0.39 0.37 0.37 0.33 0.35 0.41 0.50 0.61 0.75 0.97 1.23 1.54 1.80 2.07 2.37 2.42 2.36 2.34 2.37 2.44 2.48 2.42 2.37 2.45 2.50 2.51 2.63 2.69 2.67 2.94 3.18 2.92 2.61 2.39 2.35 2.38 2.42 2.04 1.61 1.47 1.62 1.73
0.44 0.39 0.36 0.36 0.39 0.42 0.46 0.58 0.70 0.80 0.96 1.21 1.54 1.84 2.03 2.22 2.40 2.40 2.29 2.21 2.28 2.25 2.19 2.30 2.46 2.50 2.51 2.53 2.70 2.81 3.03 3.08 3.03 2.91 2.74 2.56 2.38 2.03 2.10 2.02 1.76 1.71 1.64
0.44 0.45 0.48 0.48 0.47 0.51 0.61 0.73 0.83 0.98 1.11 1.20 1.32 1.47 1.67 1.96 2.12 2.25 2.25 2.23 2.23 2.11 2.01 2.10 2.18 2.29 2.36 2.35 2.41 2.58 2.74 2.96 3.11 3.05 2.87 2.81 2.74 2.51 2.33 2.04 1.88 1.94 1.80
0.54 0.61 0.68 0.65 0.62 0.64 0.78 0.88 0.96 1.01 1.06 1.03 1.05 1.17 1.33 1.56 1.71 1.83 2.00 2.06 2.09 2.07 2.04 1.96 2.00 2.06 2.12 2.22 2.42 2.44 2.52 2.71 2.90 2.92 2.84 2.83 2.67 2.57 2.59 2.35 1.98 1.89 1.79
0.65 0.80 0.90 0.92 0.86 0.86 0.89 0.90 0.94 0.89 0.89 0.92 0.95 1.02 1.08 1.23 1.35 1.43 1.58 1.70 1.69 1.68 1.65 1.68 1.77 1.91 2.00 2.07 2.24 2.33 2.33 2.39 2.46 2.48 2.64 2.74 2.64 2.43 2.36 2.38 2.42 2.16 1.92
0.80 0.97 1.15 1.18 1.09 1.02 0.96 0.96 1.01 0.95 0.87 0.90 0.98 1.00 1.03 1.03 1.04 1.10 1.10 1.18 1.26 1.27 1.29 1.35 1.49 1.69 1.81 1.86 1.97 2.15 2.13 2.18 2.17 2.23 2.30 2.35 2.43 2.31 2.15 2.12 2.22 2.34 2.13
1.01 1.15 1.28 1.28 1.24 1.26 1.21 1.05 1.03 1.05 0.98 1.05 1.07 0.99 0.95 0.91 0.93 0.98 1.01 1.02 1.10 1.18 1.24 1.26 1.33 1.46 1.55 1.63 1.79 1.93 2.02 2.05 2.03 2.01 2.08 2.13 2.18 2.20 2.18 2.16 2.17 2.16 2.11
1.23 1.25 1.33 1.31 1.21 1.20 1.17 1.15 1.10 1.07 1.08 1.09 1.10 0.97 0.95 0.96 0.96 0.94 0.97 1.04 1.11 1.21 1.25 1.29 1.31 1.32 1.40 1.46 1.56 1.69 1.83 1.85 1.87 1.77 1.79 1.91 1.98 2.17 2.21 2.19 2.16 2.14 2.05
1.22 1.22 1.29 1.23 1.11 1.09 0.99 1.02 1.09 1.09 1.17 1.18 1.09 1.01 1.04 1.06 1.09 1.04 1.00 1.03 1.07 1.06 1.14 1.24 1.21 1.20 1.25 1.33 1.43 1.53 1.58 1.67 1.64 1.54 1.56 1.67 1.75 1.90 2.01 2.12 2.03 2.04 2.00
1.00 0.94 0.99 1.06 1.02 1.00 0.94 1.02 1.09 1.14 1.16 1.19 1.19 1.07 0.97 0.99 1.02 1.01 0.94 0.90 0.92 0.95 1.06 1.20 1.31 1.22 1.12 1.21 1.30 1.34 1.36 1.38 1.33 1.31 1.37 1.42 1.51 1.64 1.75 1.85 1.94 1.96 1.89
0.78 0.72 0.70 0.77 0.79 0.81 0.88 0.95 1.09 1.24 1.26 1.25 1.20 1.13 1.06 1.08 1.00 0.92 0.89 0.87 0.82 0.77 0.82 0.98 1.09 1.13 1.09 1.06 1.07 1.11 1.26 1.26 1.17 1.08 1.07 1.09 1.13 1.27 1.41 1.52 1.67 1.82 1.95
0.56 0.57 0.56 0.57 0.58 0.62 0.70 0.77 0.89 1.10 1.23 1.31 1.30 1.21 1.14 1.05 0.97 0.87 0.79 0.80 0.70 0.67 0.73 0.89 1.04 1.08 1.08 1.11 1.11 1.05 1.09 1.15 1.16 1.08 0.97 0.89 0.89 1.00 1.09 1.18 1.45 1.65 1.82
0.39 0.40 0.45 0.47 0.51 0.54 0.61 0.62 0.73 0.90 1.03 1.11 1.14 1.21 1.18 1.01 0.90 0.80 0.71 0.69 0.67 0.65 0.66 0.75 0.90 1.02 0.98 1.16 1.21 1.13 1.04 1.04 1.04 1.03 1.01 1.00 0.95 0.84 0.80 0.86 1.03 1.28 1.49
0.35 0.34 0.34 0.38 0.46 0.54 0.57 0.61 0.72 0.85 0.89 0.95 0.97 1.02 1.03 0.88 0.81 0.70 0.63 0.62 0.62 0.63 0.63 0.69 0.82 0.96 1.09 1.13 1.00 1.07 1.07 1.03 1.03 0.99 0.99 1.02 1.00 1.05 0.93 0.87 0.86 0.89 1.07
0.27 0.32 0.30 0.30 0.34 0.41 0.52 0.65 0.70 0.71 0.72 0.78 0.79 0.80 0.82 0.78 0.71 0.61 0.58 0.59 0.62 0.66 0.66 0.68 0.73 0.81 1.01 1.08 0.94 1.12 1.13 1.11 1.10 1.07 1.07 1.11 1.14 1.09 1.21 1.17 1.06 0.98 0.97
0.18 0.22 0.23 0.23 0.24 0.27 0.29 0.35 0.41 0.45 0.48 0.57 0.64 0.68 0.70 0.68 0.63 0.58 0.65 0.69 0.67 0.67 0.67 0.63 0.64 0.67 0.77 0.88 0.83 0.96 1.08 1.18 1.18 1.07 1.05 1.10 1.12 1.32 1.37 1.25 1.20 1.12 1.06
0.10 0.14 0.18 0.17 0.16 0.17 0.18 0.21 0.26 0.30 0.34 0.40 0.46 0.55 0.61 0.64 0.66 0.77 0.84 0.85 0.81 0.74 0.66 0.62 0.60 0.60 0.62 0.78 0.65 0.74 0.90 1.08 1.20 1.14 1.08 1.24 1.19 1.21 1.17 1.10 1.27 1.22 1.10
0.08 0.10 0.13 0.14 0.15 0.16 0.16 0.18 0.22 0.22 0.25 0.24 0.31 0.43 0.60 0.68 0.77 0.90 0.93 0.90 0.83 0.72 0.65 0.62 0.58 0.56 0.63 0.80 0.73 0.77 0.84 0.97 1.09 1.11 1.11 1.07 1.16 0.99 0.95 1.00 1.13 1.28 1.22
0.09 0.09 0.10 0.11 0.14 0.16 0.15 0.16 0.24 0.25 0.29 0.28 0.29 0.37 0.50 0.64 0.79 0.90 0.89 0.87 0.87 0.79 0.69 0.66 0.64 0.65 0.73 0.79 0.81 0.80 0.83 0.91 0.99 0.97 0.88 0.87 0.96 0.82 0.78 0.76 0.89 1.08 1.11
0.08 0.09 0.10 0.11 0.12 0.13 0.16 0.17 0.20 0.24 0.26 0.29 0.25 0.27 0.36 0.50 0.68 0.77 0.79 0.80 0.80 0.77 0.74 0.68 0.65 0.66 0.73 0.83 0.96 0.83 0.72 0.69 0.76 0.80 0.80 0.74 0.70 0.69 0.63 0.67 0.78 0.84 0.97
0.08 0.08 0.10 0.11 0.12 0.13 0.16 0.19 0.23 0.24 0.24 0.26 0.27 0.25 0.25 0.31 0.40 0.48 0.54 0.62 0.67 0.67 0.67 0.67 0.67 0.68 0.69 0.68 0.77 0.80 0.72 0.64 0.61 0.60 0.54 0.52 0.55 0.59 0.60 0.60 0.62 0.68 0.90
0.10 0.09 0.11 0.13 0.13 0.14 0.15 0.17 0.21 0.24 0.25 0.26 0.28 0.29 0.30 0.33 0.35 0.37 0.41 0.45 0.48 0.58 0.64 0.63 0.65 0.64 0.63 0.65 0.73 0.73 0.72 0.74 0.75 0.75 0.64 0.58 0.57 0.57 0.60 0.61 0.66 0.77 0.88
0.11 0.12 0.14 0.15 0.15 0.15 0.16 0.16 0.18 0.20 0.22 0.24 0.24 0.24 0.25 0.29 0.30 0.32 0.36 0.39 0.40 0.46 0.49 0.49 0.49 0.46 0.52 0.61 0.61 0.62 0.65 0.70 0.76 0.78 0.75 0.74 0.73 0.71 0.70 0.69 0.66 0.67 0.75